Location: *
(37.5724°S, 58.0067°E)
Time: 11:06:36
(UTC+00:00)

Cosmos 1842 - Pass Details

Date: 26 September 2020
Orbit: 522 x 536 km, 82.5° (Epoch: 30 October)

Event Time Altitude Azimuth Distance (km) Brightness Sun altitude
Rises 14:46:35 0° 355° (N) 2,668 6.8 -8.4°
Reaches altitude 10° 14:48:42 10° 355° (N) 1,789 5.9 -8.8°
Maximum altitude 14:52:38 87° 79° (E) 549 3.3 -9.6°
Drops below altitude 10° 14:56:40 10° 172° (S) 1,824 6.0 -10.4°
Sets 14:58:51 0° 172° (S) 2,726 6.9 -10.8°
